TimeCST,TemperatureF,Dew PointF,Humidity,Sea Level PressureIn,VisibilityMPH,Wind Direction,Wind SpeedMPH,Gust SpeedMPH,PrecipitationIn,Events,Conditions,WindDirDegrees,DateUTC
12:53 AM,39.2,28.4,65,29.95,10.0,NNW,6.9,-,N/A,,Clear,340,2013-02-06 06:53:00
1:53 AM,39.0,28.0,65,29.88,10.0,NNW,3.5,-,N/A,,Clear,330,2013-02-06 07:53:00
2:53 AM,37.9,28.0,68,29.87,10.0,North,6.9,-,N/A,,Clear,360,2013-02-06 08:53:00
3:53 AM,37.0,27.0,67,29.86,10.0,North,4.6,-,N/A,,Clear,360,2013-02-06 09:53:00
4:53 AM,35.1,27.0,72,29.86,10.0,NNW,4.6,-,N/A,,Clear,330,2013-02-06 10:53:00
5:53 AM,35.1,27.0,72,29.87,10.0,NNW,6.9,-,N/A,,Clear,330,2013-02-06 11:53:00
6:53 AM,33.8,26.6,75,29.92,10.0,North,6.9,-,N/A,,Clear,360,2013-02-06 12:53:00
7:53 AM,34.0,26.1,73,29.91,10.0,Calm,Calm,-,N/A,,Clear,0,2013-02-06 13:53:00
8:53 AM,42.1,28.0,58,29.91,10.0,North,3.5,-,N/A,,Clear,360,2013-02-06 14:53:00
9:53 AM,50.0,30.0,46,29.92,10.0,Calm,Calm,-,N/A,,Clear,0,2013-02-06 15:53:00
10:53 AM,57.9,28.9,33,29.90,10.0,Calm,Calm,-,N/A,,Clear,0,2013-02-06 16:53:00
11:53 AM,64.0,28.9,27,29.87,10.0,SSW,5.8,-,N/A,,Clear,210,2013-02-06 17:53:00
12:53 PM,70.0,28.9,22,29.83,10.0,SW,12.7,17.3,N/A,,Clear,230,2013-02-06 18:53:00
1:53 PM,72.0,25.0,17,29.79,10.0,WSW,8.1,-,N/A,,Clear,240,2013-02-06 19:53:00
2:53 PM,73.0,27.0,18,29.76,10.0,South,8.1,-,N/A,,Clear,190,2013-02-06 20:53:00
3:53 PM,75.0,30.0,19,29.74,10.0,WSW,11.5,19.6,N/A,,Clear,240,2013-02-06 21:53:00
4:53 PM,73.9,28.0,18,29.74,10.0,West,17.3,24.2,N/A,,Clear,260,2013-02-06 22:53:00
5:53 PM,72.0,28.9,20,29.75,10.0,West,16.1,-,N/A,,Clear,280,2013-02-06 23:53:00
6:53 PM,66.9,28.9,24,29.77,10.0,West,11.5,-,N/A,,Clear,270,2013-02-07 00:53:00
7:53 PM,64.0,28.9,27,29.80,10.0,West,9.2,-,N/A,,Clear,260,2013-02-07 01:53:00
8:53 PM,62.1,28.0,28,29.80,10.0,West,9.2,-,N/A,,Clear,270,2013-02-07 02:53:00
9:53 PM,59.0,28.0,31,29.81,10.0,WSW,10.4,-,N/A,,Clear,250,2013-02-07 03:53:00
10:53 PM,55.0,27.0,34,29.81,10.0,NW,4.6,-,N/A,,Clear,310,2013-02-07 04:53:00
11:53 PM,53.1,26.1,35,29.81,10.0,West,9.2,-,N/A,,Clear,270,2013-02-07 05:53:00